Location: Chavenne
(46.6022°N, 3.2951°E)
Time: 04:04:45
(UTC+00:00)

COSMOS 2406 - Pass Details

Date: 09 April 2020
Orbit: 842 x 865 km, 71.0° (Epoch: 02 June)

Event Time Altitude Azimuth Distance (km) Brightness Sun altitude
Exits shadow 20:55:02 37° 186° (S) 1,289 3.8 -23.2°
Maximum altitude 20:57:18 71° 113° (ESE) 898 3.1 -23.5°
Drops below altitude 10° 21:02:59 10° 30° (NNE) 2,490 5.8 -24.2°
Sets 21:05:28 0° 29° (NNE) 3,434 6.6 -24.5°
